Location: Newark
(13.8117°N, 3.6025°W)
Time: 05:29:16
(UTC+00:00)

Explorer 11/Cluster Stage 4 - Pass Details

Date: 31 August 2019
Orbit: 467 x 1260 km, 28.8° (Epoch: 14 September)

Event Time Altitude Azimuth Distance (km) Brightness Sun altitude
Rises 08:04:34 0° 288° (WNW) 3,385 9.3 28.6°
Reaches altitude 10° 08:07:26 10° 302° (WNW) 2,589 8.9 29.3°
Maximum altitude 08:12:31 25° 355° (N) 1,956 8.8 30.5°
Drops below altitude 10° 08:18:24 10° 47° (NE) 3,024 10.4 31.9°
Sets 08:22:03 0° 60° (ENE) 4,084 11.1 32.8°
